Home   Weather   Finland   Rovaniemi   Past weeks
Flag for Finland

Past Weather in Rovaniemi, Finland — Yesterday and Last 2 Weeks

Currently: 54 °F. Passing clouds. (Weather station: Rovaniemi Airport, Finland). See more current weather

Past Weather in Rovaniemi — Graph

°F

Rovaniemi Temperature Yesterday

Maximum temperature yesterday: 70 °F (at 12:20 pm)
Minimum temperature yesterday: 50 °F (at 3:50 am)
Average temperature yesterday: 58 °F

High & Low Weather Summary for the Past Weeks

 TemperatureHumidityPressure
High70 °F (May 24, 12:20 pm)100% (May 13, 7:50 am)30.36 "Hg (May 13, 7:50 am)
Low32 °F (May 11, 4:20 am)25% (May 24, 9:20 pm)29.56 "Hg (May 19, 5:50 pm)
Average49 °F56%30.04 "Hg
* Reported May 10 7:20 pm — May 25 7:20 pm, Rovaniemi. Weather by CustomWeather, © 2024

Note: Actual official high and low records may vary slightly from our data, if they occured in-between our weather recording intervals... More about our weather records

Rovaniemi Weather History for the Previous 24 Hours

Scroll right to see more
 ConditionsComfort  
Time TempWeatherWind HumidityBarometerVisibility
7:20 pm
Sat, May 25
54 °FPassing clouds.7 mph30%30.36 "HgN/A
6:50 pm54 °FPassing clouds.7 mph33%30.36 "HgN/A
6:20 pm54 °FPassing clouds.6 mph33%30.36 "HgN/A
5:50 pm54 °FPassing clouds.8 mph30%30.36 "HgN/A
5:20 pm54 °FPassing clouds.8 mph30%30.36 "HgN/A
4:20 pm54 °FPassing clouds.8 mph33%30.36 "HgN/A
3:20 pm52 °FPassing clouds.8 mph35%30.36 "HgN/A
2:50 pm50 °FPassing clouds.8 mph37%30.36 "HgN/A
2:20 pm52 °FPassing clouds.8 mph35%30.36 "HgN/A
1:50 pm50 °FPassing clouds.8 mph35%30.36 "HgN/A
1:20 pm48 °FPassing clouds.5 mph40%30.33 "HgN/A
12:50 pm50 °FPassing clouds.8 mph37%30.33 "HgN/A
12:20 pm48 °FPassing clouds.9 mph40%30.33 "HgN/A
11:20 am46 °FPassing clouds.7 mph43%30.33 "HgN/A
10:50 am45 °FPassing clouds.8 mph46%30.33 "HgN/A
10:20 am45 °FPassing clouds.6 mph46%30.33 "HgN/A
9:50 am45 °FPassing clouds.7 mph46%30.33 "HgN/A
9:20 am43 °FPassing clouds.10 mph49%30.33 "HgN/A
8:50 am43 °FSunny.12 mph49%30.33 "Hg10 mi
8:20 am43 °FSunny.10 mph46%30.30 "Hg10 mi
7:50 am43 °FSunny.9 mph49%30.30 "Hg10 mi
7:20 am43 °FSunny.9 mph53%30.30 "Hg10 mi
6:50 am43 °FPassing clouds.9 mph53%30.30 "HgN/A
6:20 am43 °FSunny.9 mph57%30.27 "Hg10 mi
5:50 am43 °FSunny.12 mph57%30.27 "Hg10 mi
5:20 am43 °FPassing clouds.7 mph57%30.24 "HgN/A
4:50 am43 °FSunny.7 mph57%30.24 "Hg10 mi
4:20 am43 °FSunny.6 mph57%30.24 "Hg10 mi
3:50 am45 °FPassing clouds.7 mph49%30.21 "HgN/A
3:20 am45 °FSunny.8 mph49%30.21 "Hg10 mi
2:50 am45 °FSunny.8 mph49%30.21 "Hg10 mi
2:20 am45 °FClear.9 mph49%30.18 "Hg10 mi
1:50 am46 °FClear.10 mph43%30.18 "Hg10 mi
1:20 am48 °FClear.13 mph40%30.18 "Hg10 mi
12:50 am48 °FClear.12 mph40%30.15 "Hg10 mi
12:20 am50 °FClear.10 mph40%30.15 "Hg10 mi
11:50 pm
Fri, May 24
52 °FClear.10 mph38%30.15 "Hg10 mi
11:20 pm54 °FSunny.10 mph35%30.15 "Hg10 mi
10:50 pm54 °FSunny.8 mph38%30.12 "Hg10 mi
10:20 pm55 °FSunny.6 mph36%30.12 "Hg10 mi
9:20 pm59 °FSunny.7 mph25%30.12 "Hg10 mi
8:50 pm61 °FPassing clouds.5 mph34%30.09 "HgN/A
8:20 pm61 °FSunny.5 mph34%30.09 "Hg10 mi
Weather by CustomWeather, © 2024

See weather overview